| time (UTC) | temp F | wind direction | speed knots | gust knots | rain 1hr in | rain 24hr in | rain mn in | humidity % | barometer mb |
| 20260504151047 | 51 | 195 | 1.7 | 6.1 | 0.00 | 0.00 | 0.00 | 59 | 1005.4 |
| 20260504150544 | 51 | 255 | 1.7 | 6.1 | 0.00 | 0.00 | 0.00 | 59 | 1005.3 |
| 20260504141045 | 53 | 240 | 1.7 | 4.3 | 0.00 | 0.00 | 0.00 | 56 | 1004.9 |
| 20260504140546 | 52 | 248 | 1.7 | 9.6 | 0.00 | 0.00 | 0.00 | 60 | 1004.9 |
| 20260504130547 | 50 | 255 | 1.7 | 7.0 | 0.00 | 0.00 | 0.00 | 60 | 1005.1 |
| 20260504120119 | 47 | 201 | 0.9 | 5.2 | 0.00 | 0.00 | 0.00 | 69 | 1005.5 |
| 20260504110542 | 43 | 203 | 0.0 | 1.7 | 0.00 | 0.00 | 0.00 | 84 | 1005.7 |
| 20260504100545 | 41 | 193 | 0.0 | 1.7 | 0.00 | 0.00 | 0.00 | 87 | 1006.0 |
| 20260504081554 | 41 | 247 | 0.0 | 2.6 | 0.00 | 0.00 | 0.00 | 85 | 1005.7 |
| 20260504081050 | 41 | 69 | 0.9 | 2.6 | 0.00 | 0.00 | 0.00 | 86 | 1005.8 |
| 20260504080545 | 41 | 178 | 0.9 | 1.7 | 0.00 | 0.00 | 0.00 | 86 | 1005.9 |
| 20260504050547 | 41 | 178 | 0.0 | 4.3 | 0.00 | 0.00 | 0.00 | 60 | 1006.3 |
| 20260504045550 | 41 | 178 | 0.9 | 4.3 | 0.00 | 0.00 | 0.00 | 58 | 1006.5 |
| 20260504045047 | 41 | 158 | 1.7 | 3.5 | 0.00 | 0.00 | 0.00 | 57 | 1006.5 |
| 20260504044551 | 41 | 0 | 0.0 | 3.5 | 0.00 | 0.00 | 0.00 | 57 | 1006.4 |
| 20260504044047 | 41 | 266 | 0.0 | 6.1 | 0.00 | 0.00 | 0.00 | 57 | 1006.6 |
| 20260504043547 | 41 | 193 | 0.9 | 6.1 | 0.00 | 0.00 | 0.00 | 58 | 1006.5 |
| 20260504043110 | 41 | 193 | 0.0 | 2.6 | 0.00 | 0.00 | 0.00 | 58 | 1006.6 |
| 20260504042546 | 40 | 193 | 0.0 | 2.6 | 0.00 | 0.00 | 0.00 | 59 | 1006.6 |
| 20260504042048 | 40 | 178 | 0.0 | 4.3 | 0.00 | 0.00 | 0.00 | 59 | 1006.7 |
| 20260504041548 | 40 | 146 | 0.0 | 4.3 | 0.00 | 0.00 | 0.00 | 59 | 1006.7 |
| 20260504041045 | 39 | 0 | 0.9 | 4.3 | 0.00 | 0.00 | 0.00 | 57 | 1006.6 |
| 20260504040548 | 39 | 142 | 0.0 | 1.7 | 0.00 | 0.00 | 0.00 | 58 | 1006.6 |
| 20260504040058 | 39 | 0 | 0.0 | 1.7 | 0.00 | 0.00 | 0.00 | 63 | 1006.6 |
| 20260504035544 | 39 | 0 | 0.0 | 1.7 | 0.00 | 0.00 | 0.00 | 59 | 1006.7 |
| 20260504035047 | 39 | 94 | 0.0 | 1.7 | 0.00 | 0.00 | 0.00 | 59 | 1006.6 |
| 20260504034554 | 38 | 119 | 0.0 | 0.9 | 0.00 | 0.00 | 0.00 | 61 | 1006.6 |
| 20260504034049 | 39 | 0 | 0.0 | 0.9 | 0.00 | 0.00 | 0.00 | 62 | 1006.7 |
| 20260504033547 | 39 | 72 | 0.9 | 1.7 | 0.00 | 0.00 | 0.00 | 56 | 1006.6 |
| 20260504033128 | 38 | 72 | 0.0 | 1.7 | 0.00 | 0.00 | 0.00 | 59 | 1006.6 |
| 20260504032547 | 38 | 0 | 0.0 | 1.7 | 0.00 | 0.00 | 0.00 | 59 | 1006.6 |
| 20260504032047 | 38 | 72 | 0.9 | 0.9 | 0.00 | 0.00 | 0.00 | 63 | 1006.6 |
| 20260504031558 | 38 | 72 | 0.0 | 1.7 | 0.00 | 0.00 | 0.00 | 59 | 1006.5 |
| 20260504031050 | 38 | 72 | 0.9 | 1.7 | 0.00 | 0.00 | 0.00 | 59 | 1006.6 |
| 20260504030546 | 38 | 72 | 0.0 | 1.7 | 0.00 | 0.00 | 0.00 | 58 | 1006.6 |
| 20260504030115 | 38 | 72 | 0.9 | 1.7 | 0.00 | 0.00 | 0.00 | 58 | 1006.7 |
| 20260504025547 | 38 | 72 | 0.0 | 1.7 | 0.00 | 0.00 | 0.00 | 53 | 1006.7 |
| 20260504025047 | 38 | 73 | 0.9 | 1.7 | 0.00 | 0.00 | 0.00 | 59 | 1006.8 |
| 20260504024556 | 38 | 75 | 0.0 | 1.7 | 0.00 | 0.00 | 0.00 | 57 | 1006.8 |
| 20260504024046 | 38 | 75 | 0.9 | 1.7 | 0.00 | 0.00 | 0.00 | 58 | 1006.9 |
| 20260504023546 | 38 | 0 | 0.9 | 1.7 | 0.00 | 0.00 | 0.00 | 58 | 1006.8 |
| 20260504023057 | 38 | 0 | 0.0 | 1.7 | 0.00 | 0.00 | 0.00 | 58 | 1006.8 |
| 20260504022547 | 38 | 82 | 0.9 | 1.7 | 0.00 | 0.00 | 0.00 | 57 | 1006.9 |
| 20260504022050 | 38 | 82 | 0.0 | 1.7 | 0.00 | 0.00 | 0.00 | 60 | 1007.0 |
| 20260504021552 | 38 | 82 | 0.0 | 1.7 | 0.00 | 0.00 | 0.00 | 58 | 1006.8 |
| 20260504021048 | 38 | 82 | 0.9 | 1.7 | 0.00 | 0.00 | 0.00 | 60 | 1006.9 |
| 20260504020547 | 38 | 63 | 0.0 | 1.7 | 0.00 | 0.00 | 0.00 | 60 | 1006.9 |
| 20260504020057 | 37 | 0 | 0.0 | 2.6 | 0.00 | 0.00 | 0.00 | 60 | 1006.9 |
| 20260504015544 | 38 | 70 | 0.0 | 3.5 | 0.00 | 0.00 | 0.00 | 60 | 1006.9 |
| 20260504015044 | 38 | 300 | 0.0 | 3.5 | 0.00 | 0.00 | 0.00 | 59 | 1007.0 |
| 20260504014554 | 38 | 231 | 0.0 | 3.5 | 0.00 | 0.00 | 0.00 | 57 | 1007.0 |
| 20260504014043 | 38 | 178 | 0.0 | 2.6 | 0.00 | 0.00 | 0.00 | 60 | 1007.0 |
| 20260504013549 | 38 | 178 | 0.0 | 0.9 | 0.00 | 0.00 | 0.00 | 60 | 1007.0 |
| 20260504013053 | 38 | 86 | 0.0 | 1.7 | 0.00 | 0.00 | 0.00 | 62 | 1006.9 |
| 20260504012544 | 38 | 84 | 0.0 | 1.7 | 0.00 | 0.00 | 0.00 | 62 | 1007.0 |
| 20260504012044 | 38 | 286 | 0.0 | 1.7 | 0.00 | 0.00 | 0.00 | 62 | 1006.9 |
| 20260504011553 | 37 | 0 | 0.0 | 0.9 | 0.00 | 0.00 | 0.00 | 64 | 1006.7 |
| 20260504011046 | 37 | 0 | 0.0 | 0.9 | 0.00 | 0.00 | 0.00 | 62 | 1006.8 |
| 20260504010546 | 37 | 193 | 0.0 | 0.9 | 0.00 | 0.00 | 0.00 | 65 | 1006.7 |
| 20260504010059 | 37 | 0 | 0.0 | 0.9 | 0.00 | 0.00 | 0.00 | 65 | 1006.7 |
| 20260504005547 | 37 | 0 | 0.0 | 0.9 | 0.00 | 0.00 | 0.00 | 65 | 1006.6 |
| 20260504005104 | 37 | 0 | 0.0 | 0.9 | 0.00 | 0.00 | 0.00 | 65 | 1006.6 |
| 20260504004548 | 37 | 0 | 0.0 | 0.9 | 0.00 | 0.00 | 0.00 | 65 | 1006.5 |
| 20260504004046 | 37 | 2 | 0.0 | 0.9 | 0.00 | 0.00 | 0.00 | 64 | 1006.4 |
| 20260504003545 | 37 | 72 | 0.0 | 0.9 | 0.00 | 0.00 | 0.00 | 65 | 1006.3 |
| 20260504003047 | 37 | 65 | 0.0 | 1.7 | 0.00 | 0.00 | 0.00 | 65 | 1006.4 |
| 20260504002546 | 38 | 0 | 0.0 | 1.7 | 0.00 | 0.00 | 0.00 | 66 | 1006.4 |
| 20260504002048 | 38 | 65 | 0.0 | 0.9 | 0.00 | 0.00 | 0.00 | 65 | 1006.3 |
| 20260504001556 | 38 | 65 | 0.0 | 0.9 | 0.00 | 0.00 | 0.00 | 63 | 1006.3 |
| 20260504001048 | 39 | 0 | 0.0 | 0.9 | 0.00 | 0.00 | 0.00 | 62 | 1006.2 |
| 20260504000547 | 39 | 0 | 0.0 | 0.9 | 0.00 | 0.00 | 0.00 | 61 | 1006.2 |
| 20260504000058 | 39 | 77 | 0.0 | 0.9 | 0.00 | 0.00 | 0.00 | 63 | 1006.2 |
| 20260503235546 | 40 | 0 | 0.0 | 0.9 | 0.00 | 0.00 | 0.00 | 61 | 1006.2 |
| 20260503235046 | 41 | 286 | 0.0 | 0.9 | 0.00 | 0.00 | 0.00 | 59 | 1006.1 |
| 20260503234550 | 41 | 0 | 0.0 | 0.9 | 0.00 | 0.00 | 0.00 | 61 | 1006.2 |
| 20260503234046 | 42 | 0 | 0.0 | 1.7 | 0.00 | 0.00 | 0.00 | 57 | 1006.1 |
| 20260503233546 | 42 | 0 | 0.9 | 1.7 | 0.00 | 0.00 | 0.00 | 54 | 1006.0 |
| 20260503233052 | 43 | 218 | 0.0 | 1.7 | 0.00 | 0.00 | 0.00 | 57 | 1006.1 |
| 20260503232548 | 43 | 299 | 0.0 | 2.6 | 0.00 | 0.00 | 0.00 | 55 | 1006.1 |
| 20260503232045 | 43 | 276 | 0.9 | 3.5 | 0.00 | 0.00 | 0.00 | 56 | 1006.1 |
| 20260503231552 | 43 | 273 | 0.0 | 3.5 | 0.00 | 0.00 | 0.00 | 55 | 1006.0 |
| 20260503231045 | 43 | 290 | 0.9 | 2.6 | 0.00 | 0.00 | 0.00 | 56 | 1005.9 |
| 20260503230545 | 43 | 273 | 0.9 | 2.6 | 0.00 | 0.00 | 0.00 | 56 | 1006.1 |
| 20260503230110 | 43 | 285 | 0.9 | 2.6 | 0.00 | 0.00 | 0.00 | 54 | 1005.9 |
| 20260503225546 | 43 | 178 | 0.9 | 3.5 | 0.00 | 0.01 | 0.00 | 53 | 1005.9 |
| 20260503225047 | 43 | 178 | 0.9 | 4.3 | 0.00 | 0.01 | 0.00 | 53 | 1006.0 |
| 20260503224552 | 43 | 274 | 0.9 | 4.3 | 0.00 | 0.01 | 0.00 | 53 | 1006.1 |
| 20260503224045 | 43 | 283 | 0.9 | 4.3 | 0.00 | 0.01 | 0.00 | 51 | 1005.9 |
| 20260503223547 | 44 | 339 | 1.7 | 3.5 | 0.00 | 0.01 | 0.00 | 53 | 1005.9 |
| 20260503223111 | 43 | 287 | 0.9 | 3.5 | 0.00 | 0.01 | 0.00 | 53 | 1005.9 |
| 20260503222546 | 43 | 271 | 1.7 | 3.5 | 0.00 | 0.01 | 0.00 | 51 | 1005.9 |
| 20260503222045 | 43 | 276 | 1.7 | 3.5 | 0.00 | 0.01 | 0.00 | 51 | 1006.0 |
| 20260503221552 | 44 | 266 | 0.9 | 4.3 | 0.00 | 0.01 | 0.00 | 52 | 1005.9 |
| 20260503221047 | 44 | 250 | 2.6 | 4.3 | 0.00 | 0.01 | 0.00 | 51 | 1005.9 |
| 20260503220546 | 44 | 259 | 1.7 | 4.3 | 0.00 | 0.01 | 0.00 | 52 | 1005.8 |
| 20260503220057 | 44 | 193 | 1.7 | 3.5 | 0.00 | 0.01 | 0.00 | 53 | 1005.8 |
| 20260503215546 | 43 | 269 | 0.9 | 2.6 | 0.00 | 0.04 | 0.00 | 56 | 1005.9 |
| 20260503215045 | 44 | 178 | 0.9 | 2.6 | 0.00 | 0.04 | 0.00 | 51 | 1005.8 |
| 20260503214558 | 44 | 178 | 1.7 | 3.5 | 0.00 | 0.04 | 0.00 | 55 | 1005.8 |
| 20260503214044 | 44 | 247 | 1.7 | 3.5 | 0.00 | 0.04 | 0.00 | 54 | 1005.7 |
| 20260503213548 | 44 | 283 | 1.7 | 5.2 | 0.00 | 0.04 | 0.00 | 52 | 1005.8 |
| 20260503213049 | 45 | 249 | 1.7 | 5.2 | 0.00 | 0.04 | 0.00 | 51 | 1005.8 |
| 20260503212545 | 45 | 240 | 1.7 | 5.2 | 0.00 | 0.04 | 0.00 | 53 | 1005.8 |
| 20260503212046 | 45 | 297 | 0.9 | 4.3 | 0.00 | 0.04 | 0.00 | 52 | 1005.8 |
| 20260503211551 | 44 | 34 | 1.7 | 4.3 | 0.00 | 0.04 | 0.00 | 52 | 1005.9 |
| 20260503211045 | 44 | 276 | 2.6 | 5.2 | 0.00 | 0.04 | 0.00 | 54 | 1005.8 |
| 20260503210544 | 43 | 268 | 2.6 | 5.2 | 0.00 | 0.04 | 0.00 | 54 | 1005.7 |
| 20260503210049 | 44 | 244 | 2.6 | 6.1 | 0.00 | 0.04 | 0.00 | 52 | 1005.7 |
| 20260503205542 | 44 | 271 | 1.7 | 6.1 | 0.00 | 0.04 | 0.00 | 53 | 1005.7 |
| 20260503205042 | 44 | 338 | 2.6 | 6.1 | 0.00 | 0.04 | 0.00 | 52 | 1005.7 |
| 20260503204550 | 44 | 245 | 1.7 | 5.2 | 0.00 | 0.04 | 0.00 | 54 | 1005.7 |
| 20260503204045 | 44 | 277 | 2.6 | 5.2 | 0.00 | 0.04 | 0.00 | 56 | 1005.7 |
| 20260503203543 | 44 | 271 | 2.6 | 5.2 | 0.00 | 0.04 | 0.00 | 53 | 1005.7 |
| 20260503203050 | 44 | 257 | 1.7 | 5.2 | 0.00 | 0.04 | 0.00 | 53 | 1005.6 |
| 20260503202550 | 44 | 177 | 1.7 | 4.3 | 0.00 | 0.04 | 0.00 | 55 | 1005.7 |
| 20260503202046 | 43 | 178 | 1.7 | 7.8 | 0.00 | 0.04 | 0.00 | 57 | 1005.8 |
| 20260503201552 | 43 | 178 | 1.7 | 7.8 | 0.00 | 0.04 | 0.00 | 54 | 1005.6 |
| 20260503201045 | 43 | 325 | 2.6 | 7.8 | 0.00 | 0.04 | 0.00 | 55 | 1005.6 |
| 20260503200544 | 44 | 38 | 1.7 | 5.2 | 0.00 | 0.04 | 0.00 | 55 | 1005.7 |
| 20260503200054 | 44 | 263 | 2.6 | 5.2 | 0.00 | 0.04 | 0.00 | 54 | 1005.6 |
| 20260503195545 | 43 | 266 | 1.7 | 7.0 | 0.00 | 0.04 | 0.00 | 57 | 1005.7 |
| 20260503195045 | 43 | 258 | 1.7 | 7.0 | 0.00 | 0.04 | 0.00 | 57 | 1005.9 |
| 20260503194606 | 43 | 178 | 3.5 | 7.0 | 0.00 | 0.04 | 0.00 | 56 | 1005.9 |
| 20260503194049 | 43 | 316 | 1.7 | 4.3 | 0.00 | 0.04 | 0.00 | 56 | 1005.9 |
| 20260503193544 | 43 | 258 | 1.7 | 6.1 | 0.00 | 0.04 | 0.00 | 57 | 1005.9 |
| 20260503193047 | 43 | 238 | 1.7 | 6.1 | 0.00 | 0.04 | 0.00 | 58 | 1006.0 |
| 20260503192545 | 43 | 267 | 1.7 | 4.3 | 0.00 | 0.04 | 0.00 | 58 | 1006.0 |
| 20260503192043 | 42 | 268 | 1.7 | 4.3 | 0.00 | 0.04 | 0.00 | 61 | 1006.1 |
| 20260503191600 | 42 | 259 | 1.7 | 4.3 | 0.00 | 0.04 | 0.00 | 59 | 1006.1 |
| 20260503191046 | 42 | 281 | 1.7 | 9.6 | 0.00 | 0.04 | 0.00 | 57 | 1006.2 |
| 20260503190546 | 42 | 294 | 1.7 | 9.6 | 0.00 | 0.04 | 0.00 | 56 | 1006.2 |
| 20260503190050 | 43 | 307 | 2.6 | 7.8 | 0.00 | 0.04 | 0.00 | 52 | 1006.1 |
| 20260503185545 | 43 | 259 | 2.6 | 5.2 | 0.00 | 0.04 | 0.00 | 51 | 1006.1 |
| 20260503185045 | 44 | 278 | 1.7 | 5.2 | 0.00 | 0.04 | 0.00 | 50 | 1006.0 |
| 20260503184551 | 45 | 297 | 1.7 | 6.1 | 0.00 | 0.04 | 0.00 | 51 | 1006.1 |
| 20260503184045 | 44 | 279 | 1.7 | 6.1 | 0.00 | 0.04 | 0.00 | 51 | 1005.9 |
| 20260503183544 | 44 | 248 | 2.6 | 5.2 | 0.00 | 0.04 | 0.00 | 54 | 1006.1 |
| 20260503183058 | 43 | 328 | 1.7 | 5.2 | 0.00 | 0.04 | 0.00 | 53 | 1006.0 |
| 20260503182545 | 44 | 275 | 1.7 | 4.3 | 0.00 | 0.04 | 0.00 | 54 | 1006.1 |
| 20260503182045 | 43 | 259 | 2.6 | 5.2 | 0.00 | 0.04 | 0.00 | 51 | 1006.0 |
| 20260503181605 | 44 | 305 | 1.7 | 5.2 | 0.00 | 0.04 | 0.00 | 53 | 1006.1 |
| 20260503181048 | 43 | 329 | 1.7 | 6.1 | 0.00 | 0.04 | 0.00 | 52 | 1006.1 |
| 20260503180544 | 44 | 301 | 2.6 | 7.0 | 0.00 | 0.04 | 0.00 | 55 | 1006.0 |
| 20260503180054 | 44 | 264 | 1.7 | 7.0 | 0.00 | 0.04 | 0.00 | 52 | 1005.9 |
| 20260503175544 | 44 | 290 | 2.6 | 7.0 | 0.00 | 0.04 | 0.00 | 52 | 1005.9 |
| 20260503175043 | 44 | 289 | 1.7 | 6.1 | 0.00 | 0.04 | 0.00 | 48 | 1005.8 |
| 20260503174604 | 44 | 309 | 2.6 | 6.1 | 0.00 | 0.04 | 0.00 | 49 | 1006.0 |
| 20260503174045 | 44 | 178 | 3.5 | 6.1 | 0.00 | 0.04 | 0.00 | 51 | 1006.0 |
| 20260503173544 | 44 | 156 | 2.6 | 6.1 | 0.00 | 0.04 | 0.00 | 49 | 1006.1 |
| 20260503173052 | 44 | 288 | 2.6 | 6.1 | 0.00 | 0.04 | 0.00 | 53 | 1006.0 |
| 20260503172546 | 44 | 243 | 3.5 | 6.1 | 0.00 | 0.04 | 0.00 | 52 | 1006.0 |
| 20260503172045 | 44 | 257 | 2.6 | 6.1 | 0.00 | 0.04 | 0.00 | 51 | 1005.9 |
| 20260503171548 | 43 | 255 | 2.6 | 7.0 | 0.00 | 0.04 | 0.00 | 51 | 1005.9 |
| 20260503171044 | 43 | 280 | 2.6 | 7.0 | 0.00 | 0.04 | 0.00 | 53 | 1006.1 |
| 20260503170544 | 43 | 252 | 4.3 | 7.0 | 0.00 | 0.04 | 0.00 | 52 | 1005.9 |
| 20260503170105 | 44 | 148 | 2.6 | 7.0 | 0.00 | 0.04 | 0.00 | 48 | 1006.1 |